ニート彗星

246P/NEAT (2013)

English version
Home page
Updated on February 8, 2021

---------------------------------------------------------------------

・ プロフィール

符号 246P/2010 V2
検出日 2010年11月2日、3日
検出光度 20.4等
検出者 E. Romas (Rostov-na-Donu, Russia), A. Novichonok (Kondopoga, Russia), D. Chestnov (Saransk, Russia), G. Hug (Scranton, KS, U.S.A.)

・ 写真集

・ 軌道要素

Epoch 2013 Jan. 28.0 TT = JDT 2456320.5
T 2013 Jan. 28.70988 TT                                 MPCW
q   2.8797632            (2000.0)            P               Q
n   0.12191754     Peri.  176.18904     -0.25681582     +0.92800687
a   4.0280229      Node    78.78050     -0.89382609     -0.12184517
e   0.2850678      Incl.   15.97179     -0.36758747     -0.35207528
P   8.08
From 2710 observations 2003 Feb. 1-2015 Feb. 12, mean residual 0".5.

・ 星図

・ 光度変化

        m1 = -17.5 + 5 logΔ + 50   log r(t - 200)  [    ,-460]  (              〜2011年10月26日)
        m1 =   0.0 + 5 logΔ + 25.0 log r(t + 85)   [-460, 130]  (2011年10月26日〜2013年 6月 7日)
        m1 =   5.2 + 5 logΔ + 15.0 log r           [ 130,    ]  (2013年 6月 7日〜              )

---------------------------------------------------------------------

軌道要素はM.P.E.C. 2015-G03に掲載されたものです。
星図はステラナビゲータ Ver.8 (アストロアーツ) で作成したものです。
光度グラフはComet for Windowsで作成したものです。

---------------------------------------------------------------------

Copyright(C) Seiichi Yoshida (comet@aerith.net). All rights reserved.